Cedar Rapids, IA

4:52 PM CST on November 16, 2019 (GMT -0600)
The Eastern Iowa Airport

Weather History for KCID - September, 2019

Change the Weather History Date:

Tuesday, September 3, 2019

  Actual Average Record
Temperature  
Mean Temperature 70 °F 68 °F  
Max Temperature 82 °F 79 °F 101 °F (1913)
Min Temperature 57 °F 57 °F 37 °F (1974)
Degree Days  
Heating Degree Days 0 2  
Month to date heating degree days 0 4  
Since 1 July heating degree days 8 23  
Cooling Degree Days 5 4  
Month to date cooling degree days 11 13  
Year to date cooling degree days 663 681  
Growing Degree Days 22 (Base 50)    
Moisture  
Dew Point 68 °F    
Average Humidity 78    
Maximum Humidity 97    
Minimum Humidity 58    
Precipitation  
Precipitation T in 0.12 in 3.39 in (1958)
Month to date precipitation 0.01 0.35  
Year to date precipitation 27.86 25.65  
Sea Level Pressure  
Sea Level Pressure 29.86 in    
Wind  
Wind Speed 11 mph (West)    
Max Wind Speed 22 mph    
Max Gust Speed 30 mph    
Visibility 10 miles    
Events      
T = Trace of Precipitation, MM = Missing Value Source: NWS Daily Summary

Daily Weather History Graph

Daily Weather History Graph

Search for Another Location

Airport or City:

Astronomy

Sep. 03, 2019 Rise Set
Actual Time 6:34 AM CDT 7:37 PM CDT
Civil Twilight 6:05 AM CDT 8:05 PM CDT
Nautical Twilight 5:31 AM CDT 8:39 PM CDT
Astronomical Twilight 4:56 AM CDT 9:15 PM CDT
Moon 11:32 AM CDT (9/3) 10:29 PM CDT (9/3)
Length of Visible Light 13h 59m
Length of Day
13h 02m
Waxing Crescent, 25% of the Moon is Illuminated
Sep 3
Waxing Crescent
Sep 5
First Quarter
Sep 13
Full
Sep 21
Last Quarter
Sep 28
New

Hourly Weather History & Observations

Time (CDT) Temp. Heat Index Dew Point Humidity Pressure Visibility Wind Dir Wind Speed Gust Speed Precip Events Conditions
12:52 AM 69.1 °F - 66.9 °F 93% 29.94 in 10.0 mi South 10.4 mph - N/A   Clear
1:52 AM 69.1 °F - 66.9 °F 93% 29.90 in 10.0 mi South 10.4 mph - N/A   Mostly Cloudy
2:52 AM 70.0 °F - 68.0 °F 93% 29.86 in 9.0 mi South 12.7 mph - N/A   Mostly Cloudy
3:52 AM 70.0 °F - 68.0 °F 93% 29.82 in 10.0 mi South 13.8 mph 24.2 mph N/A   Mostly Cloudy
4:52 AM 71.1 °F - 68.0 °F 90% 29.81 in 10.0 mi South 12.7 mph 24.2 mph N/A   Overcast
5:52 AM 71.1 °F - 68.0 °F 90% 29.81 in 10.0 mi SSW 11.5 mph - N/A   Overcast
6:52 AM 72.0 °F - 69.1 °F 91% 29.82 in 10.0 mi SSW 13.8 mph - N/A   Mostly Cloudy
7:52 AM 72.0 °F - 69.1 °F 91% 29.82 in 9.0 mi SSW 12.7 mph - N/A   Overcast
8:52 AM 73.0 °F - 70.0 °F 90% 29.82 in 9.0 mi SW 9.2 mph - N/A   Overcast
9:52 AM 77.0 °F - 72.0 °F 84% 29.82 in 9.0 mi WSW 11.5 mph - N/A   Mostly Cloudy
10:04 AM 78.8 °F - 73.4 °F 83% 29.84 in 10.0 mi West 15.0 mph - N/A   Overcast
10:18 AM 79.0 °F - 73.0 °F 82% 29.84 in 9.0 mi West 15.0 mph - N/A   Overcast
10:52 AM 81.0 °F 86.2 °F 73.9 °F 79% 29.81 in 10.0 mi West 12.7 mph - N/A   Scattered Clouds
11:52 AM 80.1 °F 84.5 °F 73.9 °F 81% 29.84 in 9.0 mi West 15.0 mph 23.0 mph N/A   Clear
11:57 AM 81.0 °F 86.2 °F 73.9 °F 79% 29.86 in 9.0 mi West 15.0 mph - N/A   Mostly Cloudy
12:52 PM 80.1 °F 84.2 °F 73.0 °F 79% 29.87 in 10.0 mi WNW 15.0 mph 27.6 mph N/A   Partly Cloudy
1:52 PM 80.1 °F 84.2 °F 73.0 °F 79% 29.84 in 10.0 mi SW 8.1 mph - N/A   Clear
2:52 PM 79.0 °F - 68.0 °F 69% 29.82 in 10.0 mi WNW 12.7 mph - 0.00 in   Partly Cloudy
3:52 PM 80.1 °F 82.7 °F 68.0 °F 67% 29.82 in 10.0 mi NW 16.1 mph 24.2 mph N/A   Clear
4:52 PM 80.1 °F 81.7 °F 64.0 °F 58% 29.85 in 10.0 mi WNW 17.3 mph 25.3 mph N/A   Clear
5:52 PM 79.0 °F - 64.0 °F 60% 29.87 in 10.0 mi WNW 11.5 mph - N/A   Clear
6:52 PM 75.9 °F - 64.9 °F 69% 29.89 in 10.0 mi WNW 10.4 mph - N/A   Clear
7:52 PM 70.0 °F - 64.0 °F 81% 29.91 in 10.0 mi NW 5.8 mph - N/A   Clear
8:52 PM 66.0 °F - 62.1 °F 87% 29.93 in 10.0 mi WNW 8.1 mph - N/A   Scattered Clouds
9:52 PM 64.0 °F - 61.0 °F 90% 29.95 in 10.0 mi WNW 8.1 mph - N/A   Clear
10:52 PM 64.0 °F - 59.0 °F 84% 29.98 in 10.0 mi NW 8.1 mph - N/A   Clear
11:52 PM 60.1 °F - 57.0 °F 90% 30.00 in 10.0 mi WNW 4.6 mph - N/A   Clear